5B4ALR-13 Weather Reports


time (UTC)temp
C
wind
direction
speed
KPH
gust
KPH
rain 1hr
cm
rain 24hr
cm
rain mn
cm
humidity
%
barometer
mb
20260507164108 21 157 1.6 1.6 0.00 0.00 0.00 57 1018.2
20260507163108 22 180 0.0 1.6 0.00 0.00 0.00 54 1018.1
20260507162109 22 225 0.0 0.0 0.00 0.00 0.00 49 1018.0
20260507161108 23 180 0.0 0.0 0.00 0.00 0.00 48 1018.0
20260507160110 23 225 0.0 0.0 0.00 0.00 0.00 47 1017.9
20260507155108 23 270 0.0 0.0 0.00 0.00 0.00 47 1017.9
20260507154108 23 180 0.0 0.0 0.00 0.00 0.00 46 1017.9
20260507153108 23 180 0.0 0.0 0.00 0.00 0.00 48 1018.0
20260507152108 23 202 1.6 8.0 0.00 0.00 0.00 48 1018.0
20260507151108 23 225 1.6 1.6 0.00 0.00 0.00 48 1018.0
20260507150108 24 270 0.0 0.0 0.00 0.00 0.00 46 1018.0
20260507145108 23 135 0.0 0.0 0.00 0.00 0.00 47 1018.0
20260507144109 23 90 0.0 0.0 0.00 0.00 0.00 48 1018.1
20260507143108 23 270 0.0 0.0 0.00 0.00 0.00 47 1018.1
20260507142108 23 135 0.0 0.0 0.00 0.00 0.00 47 1018.2
20260507141109 23 180 1.6 1.6 0.00 0.00 0.00 46 1018.1
20260507140108 23 180 0.0 0.0 0.00 0.00 0.00 46 1018.2
20260507135109 23 225 0.0 0.0 0.00 0.00 0.00 46 1018.2
20260507134108 24 180 1.6 1.6 0.00 0.00 0.00 46 1018.4
20260507133109 23 180 0.0 0.0 0.00 0.00 0.00 47 1018.3
20260507132115 23 180 3.2 8.0 0.00 0.00 0.00 47 1018.4
20260507131108 23 180 0.0 1.6 0.00 0.00 0.00 47 1018.5
20260507130108 23 180 1.6 1.6 0.00 0.00 0.00 47 1018.5
20260507125108 23 225 3.2 3.2 0.00 0.00 0.00 45 1018.6
20260507124113 23 180 1.6 1.6 0.00 0.00 0.00 46 1018.7
20260507123108 22 90 1.6 1.6 0.00 0.00 0.00 50 1018.8
20260507122111 23 45 1.6 3.2 0.00 0.00 0.00 47 1018.9
20260507121108 23 90 1.6 1.6 0.00 0.00 0.00 45 1019.0
20260507120108 23 180 3.2 3.2 0.00 0.00 0.00 46 1019.0
20260507115108 23 180 3.2 4.8 0.00 0.00 0.00 48 1019.0
20260507114108 23 180 1.6 1.6 0.00 0.00 0.00 51 1019.2
20260507113108 23 135 1.6 1.6 0.00 0.00 0.00 52 1019.4
20260507112108 22 90 4.8 6.4 0.00 0.00 0.00 53 1019.3
20260507111108 22 90 1.6 8.0 0.00 0.00 0.00 50 1019.3
20260507110108 22 135 3.2 6.4 0.00 0.00 0.00 50 1019.3
20260507105108 22 45 3.2 3.2 0.00 0.00 0.00 53 1019.4
20260507104108 22 90 3.2 9.7 0.00 0.00 0.00 52 1019.3
20260507103110 22 180 1.6 1.6 0.00 0.00 0.00 50 1019.4
20260507102108 22 180 1.6 1.6 0.00 0.00 0.00 49 1019.4
20260507101108 22 135 0.0 0.0 0.00 0.00 0.00 48 1019.3
20260507100108 22 90 0.0 1.6 0.00 0.00 0.00 48 1019.4
20260507095113 23 90 0.0 0.0 0.00 0.00 0.00 47 1019.5
20260507094111 22 45 0.0 3.2 0.00 0.00 0.00 50 1019.7
20260507093110 22 90 1.6 1.6 0.00 0.00 0.00 49 1019.6
20260507092110 22 45 1.6 1.6 0.00 0.00 0.00 50 1019.6
20260507091111 22 90 1.6 3.2 0.00 0.00 0.00 50 1019.7
20260507090111 22 90 1.6 1.6 0.00 0.00 0.00 49 1019.7
20260507085108 22 90 1.6 3.2 0.00 0.00 0.00 45 1019.7
20260507084112 22 90 1.6 1.6 0.00 0.00 0.00 48 1019.8
20260507083108 22 90 3.2 11.3 0.00 0.00 0.00 46 1019.7
20260507082111 22 90 1.6 1.6 0.00 0.00 0.00 44 1019.8
20260507081109 23 90 0.0 0.0 0.00 0.00 0.00 43 1019.8
20260507080108 22 45 1.6 6.4 0.00 0.00 0.00 43 1019.8
20260507075108 23 90 1.6 4.8 0.00 0.00 0.00 42 1019.8
20260507074108 22 67 1.6 6.4 0.00 0.00 0.00 45 1019.7
20260507073108 22 90 3.2 8.0 0.00 0.00 0.00 45 1019.8
20260507072111 22 90 1.6 1.6 0.00 0.00 0.00 46 1019.8
20260507071108 22 135 1.6 1.6 0.00 0.00 0.00 48 1019.7
20260507070108 22 315 1.6 1.6 0.00 0.00 0.00 46 1019.6
20260507065108 22 90 0.0 0.0 0.00 0.00 0.00 48 1019.7
20260507064108 22 90 0.0 1.6 0.00 0.00 0.00 46 1019.6
20260507063111 22 135 0.0 1.6 0.00 0.00 0.00 46 1019.7
20260507062113 23 90 1.6 1.6 0.00 0.00 0.00 43 1019.6
20260507061108 23 90 0.0 0.0 0.00 0.00 0.00 40 1019.5
20260507060109 23 90 1.6 1.6 0.00 0.00 0.00 42 1019.5
20260507055108 23 45 0.0 0.0 0.00 0.00 0.00 43 1019.5
20260507054109 22 225 0.0 0.0 0.00 0.00 0.00 43 1019.4
20260507053109 22 315 0.0 0.0 0.00 0.00 0.00 44 1019.4
20260507052110 22 0 0.0 1.6 0.00 0.00 0.00 45 1019.4
20260507051108 22 0 0.0 0.0 0.00 0.00 0.00 49 1019.4
20260507050108 21 0 0.0 0.0 0.00 0.00 0.00 50 1019.4
20260507045111 21 225 1.6 1.6 0.00 0.00 0.00 52 1019.4
20260507044108 21 270 0.0 0.0 0.00 0.00 0.00 54 1019.3
20260507043109 20 315 0.0 0.0 0.00 0.00 0.00 55 1019.2
20260507042108 20 0 0.0 0.0 0.00 0.00 0.00 55 1019.2
20260507041108 19 292 0.0 0.0 0.00 0.00 0.00 56 1019.1
20260507040108 18 270 0.0 0.0 0.00 0.00 0.00 59 1019.1
20260507035108 17 315 0.0 0.0 0.00 0.00 0.00 63 1019.0
20260507034108 16 315 0.0 0.0 0.00 0.00 0.00 65 1019.0
20260507033108 15 315 0.0 0.0 0.00 0.00 0.00 67 1018.9
20260507032108 14 315 0.0 0.0 0.00 0.00 0.00 72 1018.9
20260507031108 14 315 0.0 0.0 0.00 0.00 0.00 73 1018.9
20260507030108 14 270 0.0 0.0 0.00 0.00 0.00 74 1018.9
20260507025108 13 315 0.0 0.0 0.00 0.00 0.00 74 1018.8
20260507024108 13 0 0.0 0.0 0.00 0.00 0.00 74 1018.6
20260507023108 13 0 0.0 0.0 0.00 0.00 0.00 74 1018.5
20260507022108 14 0 0.0 0.0 0.00 0.00 0.00 73 1018.5
20260507021108 14 315 0.0 0.0 0.00 0.00 0.00 73 1018.4
20260507020108 14 0 0.0 0.0 0.00 0.00 0.00 73 1018.4
20260507015108 14 0 0.0 0.0 0.00 0.00 0.00 73 1018.2
20260507014108 14 315 0.0 0.0 0.00 0.00 0.00 73 1018.2
20260507013108 14 292 0.0 0.0 0.00 0.00 0.00 72 1018.2
20260507012107 14 315 0.0 0.0 0.00 0.00 0.00 72 1018.1
20260507011108 14 315 0.0 0.0 0.00 0.00 0.00 72 1018.2
20260507010108 14 270 0.0 0.0 0.00 0.00 0.00 72 1018.2
20260507005108 14 315 0.0 0.0 0.00 0.00 0.00 72 1018.2
20260507004108 15 270 0.0 0.0 0.00 0.00 0.00 72 1018.2
20260507003108 15 0 0.0 0.0 0.00 0.00 0.00 72 1018.3
20260507002107 15 90 0.0 0.0 0.00 0.00 0.00 72 1018.3
20260507001108 15 45 0.0 0.0 0.00 0.00 0.00 71 1018.3
20260507000107 15 225 0.0 0.0 0.00 0.00 0.00 71 1018.3
20260506235108 15 0 0.0 0.0 0.00 0.00 0.00 71 1018.3
20260506234107 15 45 0.0 0.0 0.00 0.00 0.00 71 1018.3
20260506233108 15 315 0.0 0.0 0.00 0.00 0.00 70 1018.3
20260506232107 15 45 0.0 0.0 0.00 0.00 0.00 70 1018.3
20260506231107 15 337 0.0 0.0 0.00 0.00 0.00 70 1018.3
20260506230107 15 337 0.0 0.0 0.00 0.00 0.00 70 1018.4
20260506225107 15 315 1.6 3.2 0.00 0.00 0.00 69 1018.5
20260506224107 15 315 0.0 0.0 0.00 0.00 0.00 69 1018.5
20260506223107 15 0 0.0 0.0 0.00 0.00 0.00 69 1018.4
20260506222107 15 315 0.0 0.0 0.00 0.00 0.00 68 1018.5
20260506221107 16 0 0.0 0.0 0.00 0.00 0.00 68 1018.5
20260506220107 16 0 1.6 3.2 0.00 0.00 0.00 68 1018.5
20260506215107 16 0 0.0 0.0 0.00 0.00 0.00 68 1018.5
20260506214107 16 315 0.0 3.2 0.00 0.00 0.00 68 1018.6
20260506213108 16 225 0.0 0.0 0.00 0.00 0.00 67 1018.4
20260506212107 16 315 0.0 0.0 0.00 0.00 0.00 67 1018.5
20260506211107 16 315 0.0 1.6 0.00 0.00 0.00 67 1018.4
20260506210108 16 0 0.0 1.6 0.00 0.00 0.00 67 1018.4
20260506205107 16 270 1.6 1.6 0.00 0.00 0.00 66 1018.4
20260506204107 16 315 0.0 1.6 0.00 0.00 0.00 66 1018.4
20260506203108 16 0 0.0 0.0 0.00 0.00 0.00 66 1018.4
20260506202107 16 315 0.0 0.0 0.00 0.00 0.00 65 1018.4
20260506201107 17 270 0.0 1.6 0.00 0.00 0.00 65 1018.5
20260506200107 17 315 1.6 1.6 0.00 0.00 0.00 65 1018.5
20260506195107 17 0 0.0 0.0 0.00 0.00 0.00 64 1018.5
20260506194107 17 315 0.0 0.0 0.00 0.00 0.00 64 1018.5
20260506193107 17 292 0.0 1.6 0.00 0.00 0.00 63 1018.5
20260506192107 17 315 0.0 0.0 0.00 0.00 0.00 62 1018.4
20260506191107 17 270 0.0 0.0 0.00 0.00 0.00 61 1018.4
20260506190107 17 225 0.0 0.0 0.00 0.00 0.00 60 1018.3
20260506185107 17 315 0.0 0.0 0.00 0.00 0.00 59 1018.2
20260506184107 17 315 0.0 1.6 0.00 0.00 0.00 58 1018.2
20260506183107 18 270 0.0 0.0 0.00 0.00 0.00 58 1018.1
20260506182107 18 225 0.0 0.0 0.00 0.00 0.00 57 1018.0
20260506181107 18 180 0.0 0.0 0.00 0.00 0.00 57 1017.9
20260506180107 18 225 0.0 0.0 0.00 0.00 0.00 57 1017.9
20260506175107 18 180 0.0 0.0 0.00 0.00 0.00 57 1017.7
20260506174107 18 180 0.0 0.0 0.00 0.00 0.00 57 1017.6
20260506173107 18 247 0.0 0.0 0.00 0.00 0.00 57 1017.5
20260506172107 18 225 0.0 0.0 0.00 0.00 0.00 57 1017.5
20260506171107 18 225 1.6 3.2 0.00 0.00 0.00 57 1017.4
20260506170107 19 247 1.6 4.8 0.00 0.00 0.00 56 1017.4
20260506165107 19 225 0.0 0.0 0.00 0.00 0.00 55 1017.3